This demonstration page uses our WeatherBlox Daily Observations layout. Learn more.

39.01783, -85.05884

Hourly Observations for June 18, 2019

Temp ( °F °C ) Dew Point ( °F °C ) Humidity (%) Winds ( mph kmh ) Pressure ( in mb ) Visibility ( mi km ) Precip ( " mm )
12:52 am 00:52 Cloudy 68 20 65 18.3 90 90 Calm 29.96 1015 8 12.87472 0 0
1:52 am 01:52 Cloudy 66 18.9 65 18.3 96 96 S 7 11 29.94 1014 7 11.26538 0 0
2:52 am 02:52 Cloudy with Mist and Fog 69 20.6 68 20 96 96 S 5 7 29.93 1014 6 9.65604 0 0
3:36 am 03:36 Cloudy with Mist and Fog 68 20 68 20 100 100 S 9 15 29.93 1013 5 8.0467 0 0
3:52 am 03:52 Cloudy 68 20 66 18.9 93 93 SSW 10 17 29.92 1013 7 11.26538 0 0
4:36 am 04:36 Cloudy with Rain 68 20 66 18.9 93 93 SSW 10 17 29.93 1013 4 6.43736 0.07 1.778
4:52 am 04:52 Cloudy with Light Rain 68 20 66 18.9 93 93 SSW 8 13 29.92 1013 8 12.87472 0.1 2.54
5:52 am 05:52 Cloudy 68 20 67 19.4 96 96 SSW 6 9 29.92 1013 10 16.0934 0.01 0.254
6:03 am 06:03 Cloudy 69 20.6 67 19.4 93 93 SSW 6 9 29.93 1013 10 16.0934 0 0
6:52 am 06:52 Cloudy 69 20.6 67 19.4 93 93 SSW 7 11 29.92 1013 8 12.87472 0 0.0254
7:46 am 07:46 Cloudy with Rain 70 21 66 19 88 88 S 8 13 29.93 1014 2.5 4.02335 0.03 0.762
7:52 am 07:52 Cloudy with Rain 69 20.6 67 19.4 93 93 SSW 6 9 29.94 1014 2.5 4.02335 0.04 1.016
8:16 am 08:16 Cloudy with Rain 68 20 67 19.4 96 96 S 8 13 29.95 1014 2.5 4.02335 0.06 1.524
8:42 am 08:42 Cloudy with Rain 68 20 67 19.4 96 96 SSW 8 13 29.95 1014 2.5 4.02335 0.12 3.048
8:52 am 08:52 Cloudy with Light Rain 68 20 68 20 100 100 SSW 8 13 29.94 1014 2.5 4.02335 0.14 3.556
8:59 am 08:59 Cloudy with Light Rain 81 27.2 66 18.9 61 61 SSW 7 11 29.93 1013 2.5 4.02335 0.01 0.254
9:43 am 09:43 Cloudy with Light Rain 68 20 66 18.9 93 93 S 7 11 29.95 1014 2.5 4.02335 0.14 3.556
9:50 am 09:50 Cloudy with Heavy Rain 66 19 66 19 100 100 S 8 13 29.94 1014 2 3.21868 0.17 4.318
9:52 am 09:52 Cloudy with Heavy Rain 67 19.4 66 18.9 97 97 S 7 11 29.94 1014 1.5 2.41401 0.2 5.08
10:13 am 10:13 Cloudy with Light Rain 67 19.4 67 19.4 100 100 S 6 9 29.94 1014 1.5 2.41401 0.06 1.524
10:21 am 10:21 Cloudy with Light Rain 67 19.4 67 19.4 100 100 S 7 11 29.93 1014 3 4.82802 0.07 1.778
11:52 am 11:52 Cloudy 71 21.7 68 20 90 90 SW 7 11 29.93 1014 8 12.87472 0 0
12:15 pm 12:15 Cloudy 73 22.8 69 20.6 87 87 SW 7 11 29.92 1013 10 16.0934 0 0
12:52 pm 12:52 Cloudy 74 23.3 69 20.6 85 85 SSW 6 9 29.91 1013 10 16.0934 0 0
1:24 pm 13:24 Cloudy 75 23.9 69 20.6 82 82 SSW 8 13 29.91 1013 10 16.0934 0 0
1:52 pm 13:52 Mostly Cloudy 76 24.4 68 20 77 77 SW 8 13 29.9 1013 10 16.0934 0 0
2:52 pm 14:52 Mostly Cloudy 77 25 69 20.6 77 77 SW 5 7 29.88 1012 10 16.0934 0 0
3:52 pm 15:52 Mostly Cloudy 79 26.1 67 19.4 67 67 VRB 3 6 29.86 1011 10 16.0934 0 0.0254
4:42 pm 16:42 Mostly Cloudy 78 25.6 68 20 71 71 SW 5 7 29.84 1011 10 16.0934 0 0
4:52 pm 16:52 Mostly Cloudy 79 26.1 68 20 69 69 SSE 5 7 29.85 1011 10 16.0934 0 0
5:52 pm 17:52 Cloudy with Light Rain 77 25 69 20.6 77 77 SW 8 13 29.83 1010 8 12.87472 0 0.0254
6:52 pm 18:52 Mostly Cloudy 77 25 69 20.6 77 77 SW 5 7 29.83 1010 10 16.0934 0 0.0254
7:52 pm 19:52 Mostly Cloudy 78 25.6 68 20 71 71 SW 5 7 29.82 1010 10 16.0934 0 0
8:52 pm 20:52 Partly Cloudy 75 23.9 67 19.4 76 76 SW 5 7 29.83 1010 10 16.0934 0 0
9:52 pm 21:52 Mostly Clear 73 22.8 67 19.4 81 81 SSW 3 6 29.83 1010 10 16.0934 0 0
10:52 pm 22:52 Mostly Cloudy 72 22.2 68 20 87 87 S 3 6 29.85 1011 10 16.0934 0 0
11:26 pm 23:26 Mostly Cloudy 70 21.1 67 19.4 90 90 S 5 7 29.85 1011 8 12.87472 0 0
11:52 pm 23:52 Mostly Cloudy 70 21.1 67 19.4 90 90 SSW 3 6 29.84 1011 9 14.48406 0 0

Powered by AerisWeather